Phillips, WI

2:58 PM CDT on August 28, 2016 (GMT -0500)
Price County

Weather History for KPBH - January, 2012

Change the Weather History Date:

Sunday, January 1, 2012

  Actual Average Record
Temperature  
Mean Temperature 28 °F -  
Max Temperature 33 °F 22 °F 37 °F (1998)
Min Temperature 24 °F 7 °F -25 °F (1999)
Degree Days  
Heating Degree Days 36    
Moisture  
Dew Point 26 °F    
Average Humidity 86    
Maximum Humidity 93    
Minimum Humidity 74    
Precipitation  
Precipitation 0.00 in - - ()
Sea Level Pressure  
Sea Level Pressure 29.73 in    
Wind  
Wind Speed 7 mph (NW)    
Max Wind Speed 20 mph    
Max Gust Speed 29 mph    
Visibility 5 miles    
Events Snow    
Averages and records for this station are not official NWS values.
T = Trace of Precipitation, MM = Missing Value Source: NWS Daily Summary

Daily Weather History Graph

Daily Weather History Graph

Search for Another Location

Airport or City:

Trip Planner

Search our weather history database for the weather conditions in past years. The results will help you decide how hot, cold, wet, or windy it might be!

Date:

Astronomy

Jan. 01, 2012 Rise Set
Actual Time 7:42 AM CST 4:27 PM CST
Civil Twilight 7:08 AM CST 5:01 PM CST
Nautical Twilight 6:30 AM CST 5:39 PM CST
Astronomical Twilight 5:54 AM CST 6:15 PM CST
Moon 11:27 AM CST (1/1) 12:25 AM CST (1/1)
Length of Visible Light 9h 53m
Length of Day
8h 45m
First Quarter, 55% of the Moon is Illuminated
Jan 1
First Quarter
Jan 9
Full
Jan 16
Last Quarter
Jan 23
New
Jan 30
First Quarter

Hourly Weather History & Observations

Time (CST) Temp. Windchill Dew Point Humidity Pressure Visibility Wind Dir Wind Speed Gust Speed Precip Events Conditions
12:15 AM 32.0 °F - 30.2 °F 93% 29.64 in 1.0 mi Calm Calm - N/A Snow Snow
12:35 AM 32.0 °F - 30.2 °F 93% 29.63 in 0.8 mi Calm Calm - N/A Snow Snow
12:55 AM 32.0 °F - 30.2 °F 93% 29.63 in 1.5 mi Calm Calm - N/A Snow Light Snow
1:15 AM 32.0 °F - 30.2 °F 93% 29.62 in 1.2 mi Calm Calm - N/A Snow Light Snow
1:35 AM 32.0 °F - 30.2 °F 93% 29.62 in 1.0 mi Calm Calm - N/A Snow Snow
2:15 AM 32.0 °F - 30.2 °F 93% 29.64 in 1.2 mi Calm Calm - N/A Snow Light Snow
2:35 AM 32.0 °F 26.4 °F 30.2 °F 93% 29.64 in 1.2 mi NW 5.8 mph - N/A Snow Light Snow
2:55 AM 33.8 °F 27.7 °F 32.0 °F 93% 29.64 in 3.0 mi NW 6.9 mph - N/A Snow Light Snow
3:15 AM 33.8 °F 27.0 °F 30.2 °F 87% 29.64 in 3.0 mi NW 8.1 mph - N/A Snow Light Snow
3:35 AM 33.8 °F 27.7 °F 30.2 °F 87% 29.64 in 4.0 mi NW 6.9 mph - N/A Snow Light Snow
4:15 AM 33.8 °F 27.7 °F 30.2 °F 87% 29.65 in 4.0 mi NW 6.9 mph - N/A   Overcast
4:35 AM 33.8 °F 26.4 °F 30.2 °F 87% 29.65 in 4.0 mi NNW 9.2 mph - N/A   Overcast
4:55 AM 33.8 °F 25.8 °F 30.2 °F 87% 29.65 in 5.0 mi WNW 10.4 mph 17.3 mph N/A   Overcast
5:15 AM 33.8 °F 24.8 °F 30.2 °F 87% 29.66 in 7.0 mi NW 12.7 mph 18.4 mph N/A   Overcast
5:35 AM 30.2 °F 21.3 °F 28.4 °F 93% 29.67 in 7.0 mi NW 10.4 mph 23.0 mph N/A Snow Light Snow
5:55 AM 30.2 °F 21.9 °F 26.6 °F 86% 29.68 in 10.0 mi NW 9.2 mph - N/A   Overcast
6:15 AM 30.2 °F 23.4 °F 26.6 °F 86% 29.69 in 10.0 mi NW 6.9 mph 18.4 mph N/A   Overcast
6:35 AM 30.2 °F 23.4 °F 26.6 °F 86% 29.69 in 10.0 mi NW 6.9 mph - N/A   Overcast
6:55 AM 30.2 °F 22.6 °F 26.6 °F 86% 29.69 in 7.0 mi NW 8.1 mph - N/A   Overcast
7:15 AM 28.4 °F 19.1 °F 24.8 °F 86% 29.70 in 7.0 mi NW 10.4 mph 20.7 mph N/A   Overcast
7:35 AM 28.4 °F 18.5 °F 24.8 °F 86% 29.71 in 10.0 mi NW 11.5 mph 20.7 mph N/A   Overcast
8:15 AM 28.4 °F 20.4 °F 24.8 °F 86% 29.73 in 10.0 mi NW 8.1 mph - N/A Snow Light Snow
8:35 AM 28.4 °F 20.4 °F 24.8 °F 86% 29.73 in 10.0 mi NW 8.1 mph 17.3 mph N/A Snow Light Snow
8:55 AM 28.4 °F 21.2 °F 24.8 °F 86% 29.73 in 7.0 mi WNW 6.9 mph 17.3 mph N/A Snow Light Snow
9:15 AM 28.4 °F 20.4 °F 24.8 °F 86% 29.73 in 10.0 mi NW 8.1 mph 17.3 mph N/A Snow Light Snow
9:55 AM 28.4 °F 20.4 °F 24.8 °F 86% 29.73 in 10.0 mi WNW 8.1 mph 16.1 mph N/A Snow Light Snow
10:15 AM 28.4 °F 19.1 °F 24.8 °F 86% 29.73 in 7.0 mi WNW 10.4 mph 17.3 mph N/A Snow Light Snow
10:35 AM 28.4 °F 19.7 °F 24.8 °F 86% 29.74 in 7.0 mi WNW 9.2 mph 16.1 mph N/A Snow Light Snow
10:55 AM 28.4 °F 19.7 °F 24.8 °F 86% 29.73 in 5.0 mi WNW 9.2 mph 16.1 mph N/A Snow Light Snow
11:15 AM 28.4 °F 22.2 °F 24.8 °F 86% 29.73 in 4.0 mi WNW 5.8 mph 17.3 mph N/A Snow Light Snow
11:35 AM 28.4 °F 19.7 °F 24.8 °F 86% 29.73 in 3.0 mi WNW 9.2 mph 17.3 mph N/A Snow Light Snow
11:55 AM 28.4 °F 19.7 °F 24.8 °F 86% 29.73 in 7.0 mi WNW 9.2 mph - N/A Snow Light Snow
12:15 PM 28.4 °F 17.5 °F 24.8 °F 86% 29.73 in 4.0 mi WNW 13.8 mph 23.0 mph N/A Snow Light Snow
12:35 PM 28.4 °F 19.1 °F 24.8 °F 86% 29.73 in 7.0 mi WNW 10.4 mph 18.4 mph N/A Snow Light Snow
12:55 PM 28.4 °F 18.5 °F 24.8 °F 86% 29.73 in 5.0 mi WNW 11.5 mph 19.6 mph N/A Snow Light Snow
1:15 PM 28.4 °F 20.4 °F 24.8 °F 86% 29.74 in 3.0 mi WNW 8.1 mph 21.9 mph N/A Snow Light Snow
1:35 PM 28.4 °F 22.2 °F 24.8 °F 86% 29.74 in 7.0 mi West 5.8 mph 16.1 mph N/A Snow Light Snow
1:55 PM 28.4 °F 19.1 °F 24.8 °F 86% 29.75 in 3.0 mi WNW 10.4 mph 18.4 mph N/A Snow Light Snow
2:15 PM 28.4 °F 19.1 °F 24.8 °F 86% 29.76 in 4.0 mi WNW 10.4 mph 18.4 mph N/A Snow Light Snow
2:35 PM 28.4 °F 15.4 °F 23.0 °F 80% 29.79 in 1.8 mi NW 19.6 mph 26.5 mph N/A Snow Light Snow
2:55 PM 26.6 °F 15.2 °F 21.2 °F 80% 29.80 in 1.2 mi WNW 13.8 mph 23.0 mph N/A Snow Light Snow
3:15 PM 26.6 °F 16.2 °F 23.0 °F 86% 29.82 in 1.0 mi WNW 11.5 mph 23.0 mph N/A Snow Light Snow
3:35 PM 26.6 °F 13.8 °F 21.2 °F 80% 29.84 in 3.0 mi NW 17.3 mph 28.8 mph N/A Snow Light Snow
3:55 PM 26.6 °F 13.8 °F 21.2 °F 80% 29.86 in 1.0 mi NW 17.3 mph 26.5 mph N/A Snow Light Snow
4:15 PM 26.6 °F 14.3 °F 19.4 °F 74% 29.87 in 2.0 mi WNW 16.1 mph 27.6 mph N/A Snow Light Snow
4:35 PM 26.6 °F 14.3 °F 19.4 °F 74% 29.89 in 4.0 mi WNW 16.1 mph 23.0 mph N/A Snow Light Snow
4:55 PM 24.8 °F 12.9 °F 19.4 °F 80% 29.90 in 7.0 mi NW 13.8 mph 23.0 mph N/A Snow Light Snow
5:15 PM 24.8 °F 13.4 °F 19.4 °F 80% 29.91 in 4.0 mi WNW 12.7 mph 21.9 mph N/A Snow Light Snow
5:35 PM 24.8 °F 15.3 °F 21.2 °F 86% 29.92 in 3.0 mi WNW 9.2 mph 20.7 mph N/A Snow Light Snow
5:55 PM 24.8 °F 13.4 °F 19.4 °F 80% 29.93 in 3.0 mi WNW 12.7 mph 23.0 mph N/A Snow Light Snow
6:15 PM 24.8 °F 12.9 °F 19.4 °F 80% 29.93 in 4.0 mi WNW 13.8 mph 24.2 mph N/A Snow Light Snow
6:35 PM 24.8 °F 15.3 °F 19.4 °F 80% 29.94 in 2.5 mi WNW 9.2 mph 31.1 mph N/A Snow Light Snow
6:55 PM 24.8 °F 13.4 °F 17.6 °F 74% 29.95 in 4.0 mi NW 12.7 mph 29.9 mph N/A Snow Light Snow
7:15 PM 23.0 °F 10.6 °F 17.6 °F 80% 29.96 in 3.0 mi WNW 13.8 mph 24.2 mph N/A Snow Light Snow
7:35 PM 23.0 °F 11.7 °F 17.6 °F 80% 29.97 in 4.0 mi WNW 11.5 mph 19.6 mph N/A Snow Light Snow
7:55 PM 21.2 °F 7.3 °F 17.6 °F 86% 29.98 in 2.5 mi WNW 16.1 mph 27.6 mph N/A Snow Light Snow
8:15 PM 21.2 °F 8.9 °F 17.6 °F 86% 29.98 in 1.5 mi WNW 12.7 mph 26.5 mph N/A Snow Light Snow
8:35 PM 21.2 °F 9.5 °F 17.6 °F 86% 29.99 in 2.5 mi WNW 11.5 mph 20.7 mph N/A Snow Light Snow
8:55 PM 19.4 °F 6.6 °F 17.6 °F 93% 29.99 in 1.8 mi WNW 12.7 mph 18.4 mph N/A Snow Light Snow
9:15 PM 19.4 °F 7.9 °F 15.8 °F 86% 29.99 in 3.0 mi WNW 10.4 mph 19.6 mph N/A Snow Light Snow
9:35 PM 19.4 °F 8.6 °F 15.8 °F 86% 30.00 in 2.5 mi NW 9.2 mph 20.7 mph N/A Snow Light Snow
9:55 PM 19.4 °F 8.6 °F 14.0 °F 80% 30.01 in 4.0 mi WNW 9.2 mph 24.2 mph N/A Snow Light Snow
10:15 PM 19.4 °F 5.5 °F 15.8 °F 86% 30.01 in 1.8 mi WNW 15.0 mph 18.4 mph N/A Snow Light Snow
10:35 PM 17.6 °F 0.9 °F 12.2 °F 79% 30.01 in 3.0 mi NW 20.7 mph 33.4 mph N/A Snow Light Snow
11:15 PM 17.6 °F 7.3 °F 12.2 °F 79% 30.03 in 3.0 mi WNW 8.1 mph 20.7 mph N/A Snow Light Snow
11:35 PM 17.6 °F 4.3 °F 12.2 °F 79% 30.02 in 4.0 mi WNW 12.7 mph 24.2 mph N/A Snow Light Snow
11:55 PM 15.8 °F 2.7 °F 12.2 °F 86% 30.02 in 4.0 mi WNW 11.5 mph 20.7 mph N/A Snow Light Snow